Regional Weather Roundup
Issued by NWS

Home | Current Version | Previous Version | Text Only | Print | Product List | Glossary Off
Versions: 1 2 3 4 5 6 7 8 9 10 11 12 13 14 15 16 17 18 19 20 21 22 23 24 25 26 27 28 29 30 31 32 33 34 35 36 37 38 39 40 41 42 43 44 45 46 47 48 49 50

000
ASUS43 KFSD 212210
RWRSD

WEATHER ROUNDUP FOR SOUTH DAKOTA
NATIONAL WEATHER SERVICE SIOUX FALLS SD
400 PM CST FRI NOV 21 2014

NOTE: "FAIR" INDICATES FEW OR NO CLOUDS BELOW 12,000 FEET WITH NO
SIGNIFICANT WEATHER AND/OR OBSTRUCTIONS TO VISIBILITY.


SDZ001>005-009-010-012>017-212300-
NORTHWEST AND NORTH CENTRAL SOUTH DAKOTA

CITY           SKY/WX    TMP DP  RH WIND       PRES   REMARKS
BUFFALO          N/A     50  26  39 W15       29.72R
FAITH            N/A     51  27  39 W9        29.79R
MOBRIDGE       PTCLDY    37  30  75 SE9       29.74S
$$

SDZ012>016-024>037-041>051-057-063-072>074-212300-
SOUTHWEST AND SOUTH CENTRAL SOUTH DAKOTA

CITY           SKY/WX    TMP DP  RH WIND       PRES   REMARKS
RAPID CTY ARPT MOSUNNY   46  31  55 SE5       29.82R
PIERRE         MOCLDY    36  26  67 SW9       29.81R
CUSTER         SUNNY     43  18  36 VRB7      29.83R
ELLSWORTH AFB  MOSUNNY   49  30  48 SE6       29.81S
PHILIP         MOSUNNY   46  30  53 W9        29.83R
PINE RIDGE     PTSUNNY   47  27  45 NW3       29.84R
SPEARFISH      FAIR      50  23  34 CALM      29.84R
WINNER         MOCLDY    46  33  60 SW8       29.84R
$$

SDZ004>011-016>023-039-040-212300-
NORTHEAST SOUTH DAKOTA

CITY           SKY/WX    TMP DP  RH WIND       PRES   REMARKS
ABERDEEN       MOCLDY    33  27  78 S10       29.79F WCI  25
WATERTOWN      MOCLDY    33  27  78 S15       29.82S WCI  23
SISSETON         N/A     34  27  75 S9G21     29.79F WCI  27
$$

SDZ017-020-022-023-036>040-048>070-212300-
SOUTHEAST SOUTH DAKOTA

CITY           SKY/WX    TMP DP  RH WIND       PRES   REMARKS
SIOUX FALLS    CLOUDY    35  27  72 S15       29.91R WCI  25
HURON          MOCLDY    37  29  72 S9        29.84F
CHAMBERLAIN    MOCLDY    39  32  75 SW6       29.83S
MITCHELL       PTCLDY    41  31  67 S8        29.87S
YANKTON        PTCLDY    39  28  65 S18       29.91F
$$

ABBREVIATIONS USED IN REMARKS
   TC - TEMPERATURE IN CELSIUS
  WCI - WIND CHILL INDEX
   HX - HEAT INDEX
  VSB - VISIBILITY



USA.gov is the U.S. government's official web portal to all federal, state and local government web resources and services.